2017-019D

Last updated on Thu Jun 22 2017 01:15:04 GMT+0100 (British Summer Time)

1 42754U 17019D 17172.57195271 .00002143 00000-0 91897-4 0 9993 2 42754 51.6429 19.0940 0011016 3.9748 356.1317 15.27311560 1945
UTC large
Height (km)
Speed (km/s)
/
Latitude / Longitude
Inclination (degrees)
Orbital Period (minutes)
Azimuth
Elevation
Range (km)
Doppler Factor

Next 0 passes for location: London (51.5072 / 0.1276)

Sorry there are no passes over London.